User: anonymous   Login
Location: Choisy
(48.7685°N, 2.4187°E)
Time: 18:48:30
(UTC+00:00)
Language:

SL-8 R/B - Orbit

View from above orbital plane
View from above orbital plane
View from above satellite
View from above satellite

Ground track
Ground track

The orbit data is extracted from the following two-line orbital elements,

1 33066U 08031G   22021.85425766 -.00000009  00000-0  31137-4 0  9999
2 33066  48.4424 172.1760 0007429  13.8946 346.2168 14.69817424729737
Epoch (UTC): 21 January 2022 20:30:07
Eccentricity: 0.0007429
inclination: 48.4424°
perigee height: 656 km
apogee height: 667 km
right ascension of ascending node: 172.1760°
argument of perigee: 13.8946°
revolutions per day: 14.69817424
mean anomaly at epoch: 346.2168°
orbit number at epoch: 72973

The dashed part of the orbit path shows where the satellite is in the earth's shadow,  

DLR